Location: Seattle
(47.6064°N, 122.3308°W)
Time: 00:59:16
(UTC-07:00)

RS-15 - Pass Details

Date: 04 April 2023
Orbit: 1885 x 2159 km, 64.8° (Epoch: 29 May)

Event Time Altitude Azimuth Distance (km) Brightness Sun altitude
Rises 02:56:41 0° 319° (NW) 5,599 10.6 -32.0°
Reaches altitude 10° 03:01:13 10° 306° (NW) 4,552 10.0 -31.6°
Enters shadow 03:07:39 21° 273° (W) 3,629 9.1 -31.0°
